HK6LRQ-26 Weather Reports


Display with metric or nautical units.
time (UTC)temp
F
wind
direction
speed
MPH
gust
MPH
rain 1hr
in
rain 24hr
in
rain mn
in
humidity
%
barometer
mb
20260507100608 58 91 4.0 4.0 0.00 0.00 0.00 80 1016.0
20260507093607 58 91 4.0 4.0 0.00 0.00 0.00 80 1016.0
20260507090606 59 91 4.0 4.0 0.00 0.00 0.00 80 1016.0
20260507083605 59 91 4.0 4.0 0.00 0.00 0.00 80 1016.0
20260507080604 59 91 4.0 4.0 0.00 0.00 0.00 80 1016.0
20260507073603 59 91 4.0 4.0 0.00 0.00 0.00 80 1016.0
20260507070602 59 91 4.0 4.0 0.00 0.00 0.00 80 1016.0
20260507063601 59 91 4.0 4.0 0.00 0.00 0.00 80 1016.0
20260507060600 59 91 4.0 4.0 0.00 0.00 0.00 80 1016.0
20260507053559 59 91 4.0 4.0 0.00 0.00 0.00 80 1017.0
20260507050558 59 91 4.0 4.0 0.00 0.00 0.00 80 1017.0
20260507043558 60 91 4.0 4.0 0.00 0.00 0.00 80 1017.0
20260507040556 60 91 4.0 4.0 0.00 0.00 0.00 80 1017.0
20260507033555 60 91 4.0 4.0 0.00 0.00 0.00 80 1017.0
20260507030553 61 91 4.0 4.0 0.00 0.00 0.00 80 1016.0
20260507023552 61 91 4.0 4.0 0.00 0.00 0.00 80 1016.0
20260507020551 62 91 4.0 4.0 0.00 0.00 0.00 80 1015.0
20260507013550 62 91 4.0 4.0 0.00 0.00 0.00 80 1015.0
20260507010549 63 91 4.0 4.0 0.00 0.00 0.00 80 1014.0
20260507003548 63 91 4.0 4.0 0.00 0.00 0.00 80 1014.0
20260507000547 63 91 4.0 4.0 0.00 0.00 0.00 80 1013.0
20260506233546 70 210 8.0 0.0 0.00 0.00 0.00 80 1013.0
20260506230545 70 210 8.0 0.0 0.00 0.00 0.00 80 1011.0
20260506223544 71 210 8.0 0.0 0.00 0.00 0.00 80 1011.0
20260506220543 72 210 8.0 0.0 0.00 0.00 0.00 80 1010.0
20260506213542 72 210 8.0 0.0 0.00 0.00 0.00 80 1010.0
20260506210541 73 210 8.0 0.0 0.00 0.00 0.00 80 1010.0
20260506203540 73 210 8.0 0.0 0.00 0.00 0.00 80 1010.0
20260506200538 73 210 8.0 0.0 0.00 0.00 0.00 81 1010.0
20260506193537 73 210 8.0 0.0 0.00 0.00 0.00 83 1010.0
20260506190536 73 210 8.0 0.0 0.00 0.00 0.00 83 1011.0
20260506183536 73 210 8.0 0.0 0.00 0.00 0.00 83 1011.0
20260506180535 73 210 8.0 0.0 0.00 0.00 0.00 83 1012.0
20260506173534 73 210 8.0 0.0 0.00 0.00 0.00 83 1012.0
20260506170533 73 200 4.0 0.0 0.00 0.00 0.00 83 1013.0
20260506163532 73 200 4.0 0.0 0.00 0.00 0.00 83 1013.0
20260506160531 70 0 2.0 0.0 0.00 0.00 0.00 88 1014.0
20260506153530 69 0 1.0 0.0 0.00 0.00 0.00 94 1015.0
20260506150529 69 0 1.0 0.0 0.00 0.00 0.00 94 1016.0
20260506143528 70 0 2.0 0.0 0.00 0.00 0.00 94 1016.0
20260506140527 70 0 2.0 0.0 0.00 0.00 0.00 94 1016.0
20260506133525 60 160 4.0 0.0 0.00 0.00 0.00 91 1016.0
20260506130524 61 160 4.0 0.0 0.00 0.00 0.00 91 1016.0
20260506123523 62 160 4.0 0.0 0.00 0.00 0.00 91 1016.0
20260506120522 62 160 4.0 0.0 0.00 0.00 0.00 91 1016.0
20260506113521 62 160 4.0 0.0 0.00 0.00 0.00 91 1016.0
20260506110520 62 160 4.0 0.0 0.00 0.00 0.00 91 1016.0
20260506103519 62 160 4.0 0.0 0.00 0.00 0.00 91 1016.0